| time (UTC) | temp F | wind direction | speed MPH | gust MPH | rain 1hr in | rain 24hr in | rain mn in | humidity % | barometer mb |
| 20260507033505 | 65 | 202 | 0.0 | 0.0 | 0.00 | 0.00 | 0.00 | 88 | 1008.4 |
| 20260507033005 | 65 | 225 | 0.0 | 0.0 | 0.00 | 0.00 | 0.00 | 88 | 1008.2 |
| 20260507032504 | 65 | 225 | 0.0 | 0.0 | 0.00 | 0.00 | 0.00 | 88 | 1008.2 |
| 20260507032005 | 65 | 225 | 0.0 | 0.0 | 0.00 | 0.00 | 0.00 | 88 | 1008.2 |
| 20260507031504 | 65 | 225 | 0.0 | 0.0 | 0.00 | 0.00 | 0.00 | 88 | 1008.0 |
| 20260507031004 | 65 | 202 | 0.0 | 3.0 | 0.00 | 0.00 | 0.00 | 89 | 1008.2 |
| 20260507030004 | 65 | 248 | 0.0 | 0.0 | 0.00 | 0.00 | 0.00 | 88 | 1008.4 |
| 20260507025504 | 65 | 195 | 0.0 | 2.0 | 0.00 | 0.00 | 0.00 | 88 | 1008.3 |
| 20260507025004 | 65 | 220 | 0.0 | 0.0 | 0.00 | 0.00 | 0.00 | 88 | 1008.4 |
| 20260507023504 | 66 | 195 | 0.0 | 0.0 | 0.00 | 0.00 | 0.00 | 88 | 1008.5 |
| 20260507023005 | 66 | 195 | 1.0 | 7.0 | 0.00 | 0.00 | 0.00 | 88 | 1008.5 |
| 20260507022504 | 66 | 219 | 1.0 | 9.0 | 0.00 | 0.00 | 0.00 | 88 | 1008.8 |
| 20260507022004 | 66 | 222 | 0.0 | 3.0 | 0.00 | 0.00 | 0.00 | 87 | 1008.9 |
| 20260507021505 | 66 | 214 | 2.0 | 7.0 | 0.00 | 0.00 | 0.00 | 87 | 1008.9 |
| 20260507021006 | 66 | 232 | 0.0 | 3.0 | 0.00 | 0.00 | 0.00 | 87 | 1008.9 |
| 20260507020504 | 66 | 219 | 1.0 | 3.0 | 0.00 | 0.00 | 0.00 | 87 | 1008.9 |
| 20260507020004 | 66 | 201 | 0.0 | 1.0 | 0.00 | 0.00 | 0.00 | 87 | 1008.9 |
| 20260507015504 | 66 | 214 | 0.0 | 3.0 | 0.00 | 0.00 | 0.00 | 87 | 1008.8 |
| 20260507015004 | 66 | 225 | 0.0 | 7.0 | 0.00 | 0.00 | 0.00 | 87 | 1008.9 |
| 20260507014503 | 66 | 218 | 2.0 | 6.0 | 0.00 | 0.00 | 0.00 | 87 | 1008.7 |
| 20260507014004 | 66 | 225 | 0.0 | 2.0 | 0.00 | 0.00 | 0.00 | 87 | 1008.7 |
| 20260507013504 | 66 | 225 | 1.0 | 3.0 | 0.00 | 0.00 | 0.00 | 87 | 1008.7 |
| 20260507013004 | 66 | 225 | 0.0 | 6.0 | 0.00 | 0.00 | 0.00 | 87 | 1008.8 |
| 20260507012505 | 66 | 218 | 1.0 | 3.0 | 0.00 | 0.00 | 0.00 | 87 | 1008.7 |
| 20260507011504 | 66 | 198 | 5.0 | 10.0 | 0.00 | 0.00 | 0.00 | 87 | 1008.9 |
| 20260507011004 | 66 | 236 | 1.0 | 6.0 | 0.00 | 0.00 | 0.00 | 86 | 1008.8 |
| 20260507010504 | 66 | 219 | 1.0 | 2.0 | 0.00 | 0.00 | 0.00 | 86 | 1008.9 |
| 20260507010004 | 66 | 220 | 0.0 | 0.0 | 0.00 | 0.00 | 0.00 | 86 | 1008.9 |
| 20260507005505 | 66 | 221 | 0.0 | 2.0 | 0.00 | 0.00 | 0.00 | 86 | 1008.8 |
| 20260507005004 | 65 | 193 | 1.0 | 3.0 | 0.00 | 0.00 | 0.00 | 86 | 1008.9 |
| 20260507004504 | 65 | 215 | 0.0 | 0.0 | 0.00 | 0.00 | 0.00 | 86 | 1008.9 |
| 20260507004004 | 65 | 225 | 0.0 | 0.0 | 0.00 | 0.00 | 0.00 | 85 | 1009.1 |
| 20260507003504 | 66 | 202 | 0.0 | 0.0 | 0.00 | 0.00 | 0.00 | 85 | 1008.8 |
| 20260507003004 | 66 | 202 | 0.0 | 3.0 | 0.00 | 0.00 | 0.00 | 85 | 1008.3 |
| 20260507002504 | 66 | 202 | 0.0 | 3.0 | 0.00 | 0.00 | 0.00 | 84 | 1008.3 |
| 20260507002005 | 66 | 215 | 0.0 | 0.0 | 0.00 | 0.00 | 0.00 | 84 | 1008.4 |
| 20260507001005 | 67 | 202 | 0.0 | 0.0 | 0.00 | 0.00 | 0.00 | 83 | 1008.2 |
| 20260507000005 | 67 | 202 | 0.0 | 0.0 | 0.00 | 0.00 | 0.00 | 82 | 1008.2 |
| 20260506235505 | 68 | 165 | 2.0 | 7.0 | 0.00 | 0.00 | 0.00 | 82 | 1008.3 |
| 20260506235006 | 68 | 186 | 1.0 | 6.0 | 0.00 | 0.00 | 0.00 | 82 | 1007.8 |
| 20260506234005 | 68 | 200 | 1.0 | 5.0 | 0.00 | 0.00 | 0.00 | 81 | 1008.0 |
| 20260506233505 | 69 | 216 | 2.0 | 12.0 | 0.00 | 0.00 | 0.00 | 80 | 1008.3 |
| 20260506233005 | 69 | 194 | 2.0 | 7.0 | 0.00 | 0.00 | 0.00 | 80 | 1008.3 |
| 20260506232005 | 69 | 214 | 5.0 | 13.0 | 0.00 | 0.00 | 0.00 | 79 | 1007.9 |
| 20260506231505 | 70 | 223 | 6.0 | 12.0 | 0.00 | 0.00 | 0.00 | 79 | 1008.0 |
| 20260506231006 | 70 | 218 | 0.0 | 9.0 | 0.00 | 0.00 | 0.00 | 78 | 1008.1 |
| 20260506230505 | 70 | 226 | 5.0 | 15.0 | 0.00 | 0.00 | 0.00 | 78 | 1008.2 |
| 20260506230005 | 70 | 209 | 2.0 | 14.0 | 0.00 | 0.00 | 0.00 | 77 | 1008.2 |
| 20260506225006 | 71 | 227 | 5.0 | 20.0 | 0.00 | 0.00 | 0.00 | 77 | 1008.4 |
| 20260506224506 | 71 | 220 | 4.0 | 14.0 | 0.00 | 0.00 | 0.00 | 77 | 1008.4 |
| 20260506223506 | 71 | 228 | 3.0 | 15.0 | 0.00 | 0.00 | 0.00 | 76 | 1008.0 |
| 20260506223005 | 71 | 226 | 1.0 | 5.0 | 0.00 | 0.00 | 0.00 | 76 | 1007.9 |
| 20260506222505 | 72 | 209 | 4.0 | 8.0 | 0.00 | 0.00 | 0.00 | 75 | 1007.9 |
| 20260506222006 | 72 | 233 | 4.0 | 8.0 | 0.00 | 0.00 | 0.00 | 75 | 1008.0 |
| 20260506221505 | 72 | 226 | 9.0 | 17.0 | 0.00 | 0.00 | 0.00 | 75 | 1007.8 |
| 20260506221005 | 72 | 223 | 7.0 | 14.0 | 0.00 | 0.00 | 0.00 | 75 | 1007.8 |
| 20260506220505 | 72 | 206 | 5.0 | 13.0 | 0.00 | 0.00 | 0.00 | 75 | 1007.9 |
| 20260506220005 | 72 | 211 | 7.0 | 14.0 | 0.00 | 0.00 | 0.00 | 75 | 1007.8 |
| 20260506215505 | 72 | 185 | 9.0 | 13.0 | 0.00 | 0.00 | 0.00 | 75 | 1007.9 |
| 20260506214505 | 72 | 225 | 10.0 | 14.0 | 0.00 | 0.00 | 0.00 | 75 | 1007.9 |
| 20260506214006 | 72 | 201 | 9.0 | 18.0 | 0.00 | 0.00 | 0.00 | 74 | 1007.9 |
| 20260506213005 | 72 | 203 | 3.0 | 8.0 | 0.00 | 0.00 | 0.00 | 74 | 1007.8 |
| 20260506212005 | 72 | 191 | 5.0 | 16.0 | 0.00 | 0.00 | 0.00 | 74 | 1007.7 |
| 20260506211505 | 72 | 214 | 7.0 | 12.0 | 0.00 | 0.00 | 0.00 | 74 | 1007.7 |
| 20260506211005 | 72 | 216 | 6.0 | 18.0 | 0.00 | 0.00 | 0.00 | 74 | 1007.7 |
| 20260506210505 | 72 | 192 | 10.0 | 17.0 | 0.00 | 0.00 | 0.00 | 73 | 1007.6 |
| 20260506210005 | 73 | 217 | 5.0 | 17.0 | 0.00 | 0.00 | 0.00 | 73 | 1007.6 |
| 20260506205006 | 73 | 228 | 9.0 | 16.0 | 0.00 | 0.00 | 0.00 | 73 | 1007.5 |
| 20260506204505 | 73 | 214 | 3.0 | 16.0 | 0.00 | 0.00 | 0.00 | 73 | 1007.4 |
| 20260506204005 | 73 | 228 | 6.0 | 15.0 | 0.00 | 0.00 | 0.00 | 73 | 1007.3 |
| 20260506203506 | 73 | 193 | 7.0 | 14.0 | 0.00 | 0.00 | 0.00 | 72 | 1007.4 |
| 20260506203005 | 74 | 214 | 6.0 | 16.0 | 0.00 | 0.00 | 0.00 | 72 | 1007.5 |
| 20260506202505 | 74 | 222 | 1.0 | 15.0 | 0.00 | 0.00 | 0.00 | 72 | 1007.4 |
| 20260506202005 | 74 | 206 | 2.0 | 8.0 | 0.00 | 0.00 | 0.00 | 72 | 1007.4 |
| 20260506201005 | 74 | 207 | 10.0 | 17.0 | 0.00 | 0.00 | 0.00 | 71 | 1007.5 |
| 20260506200505 | 74 | 220 | 8.0 | 20.0 | 0.00 | 0.00 | 0.00 | 72 | 1007.6 |
| 20260506200005 | 73 | 197 | 3.0 | 12.0 | 0.00 | 0.00 | 0.00 | 74 | 1007.6 |
| 20260506195505 | 73 | 234 | 6.0 | 15.0 | 0.00 | 0.00 | 0.00 | 73 | 1007.7 |
| 20260506195005 | 73 | 222 | 1.0 | 18.0 | 0.00 | 0.00 | 0.00 | 74 | 1007.8 |
| 20260506194505 | 72 | 207 | 12.0 | 17.0 | 0.00 | 0.00 | 0.00 | 74 | 1007.8 |
| 20260506193005 | 69 | 216 | 4.0 | 15.0 | 0.00 | 0.00 | 0.00 | 78 | 1008.2 |
| 20260506192505 | 69 | 209 | 9.0 | 18.0 | 0.00 | 0.00 | 0.00 | 78 | 1008.3 |
| 20260506192005 | 69 | 222 | 11.0 | 17.0 | 0.00 | 0.00 | 0.00 | 78 | 1008.6 |
| 20260506191505 | 69 | 222 | 5.0 | 16.0 | 0.00 | 0.00 | 0.00 | 78 | 1008.3 |
| 20260506191005 | 70 | 212 | 13.0 | 29.0 | 0.00 | 0.00 | 0.00 | 77 | 1008.4 |
| 20260506190505 | 70 | 232 | 9.0 | 29.0 | 0.00 | 0.00 | 0.00 | 78 | 1008.3 |
| 20260506190006 | 70 | 209 | 5.0 | 23.0 | 0.00 | 0.00 | 0.00 | 78 | 1008.2 |
| 20260506185505 | 70 | 232 | 12.0 | 16.0 | 0.00 | 0.00 | 0.00 | 79 | 1008.2 |
| 20260506185005 | 70 | 205 | 7.0 | 17.0 | 0.00 | 0.00 | 0.00 | 79 | 1008.2 |
| 20260506184505 | 69 | 225 | 10.0 | 20.0 | 0.00 | 0.00 | 0.00 | 80 | 1008.5 |
| 20260506184005 | 69 | 226 | 13.0 | 15.0 | 0.00 | 0.00 | 0.00 | 80 | 1008.5 |
| 20260506183505 | 68 | 208 | 12.0 | 25.0 | 0.00 | 0.00 | 0.00 | 80 | 1008.7 |
| 20260506183006 | 69 | 227 | 9.0 | 25.0 | 0.00 | 0.00 | 0.00 | 80 | 1008.8 |
| 20260506182505 | 69 | 204 | 12.0 | 25.0 | 0.00 | 0.00 | 0.00 | 79 | 1008.8 |
| 20260506182005 | 69 | 202 | 10.0 | 18.0 | 0.00 | 0.00 | 0.00 | 79 | 1008.8 |
| 20260506181504 | 70 | 208 | 13.0 | 25.0 | 0.00 | 0.00 | 0.00 | 79 | 1008.8 |
| 20260506180505 | 69 | 213 | 8.0 | 15.0 | 0.00 | 0.00 | 0.00 | 83 | 1008.7 |
| 20260506180005 | 67 | 220 | 5.0 | 15.0 | 0.00 | 0.00 | 0.00 | 84 | 1008.7 |
| 20260506175005 | 67 | 186 | 7.0 | 21.0 | 0.00 | 0.00 | 0.00 | 82 | 1008.8 |
| 20260506174504 | 68 | 213 | 11.0 | 20.0 | 0.00 | 0.00 | 0.00 | 82 | 1008.8 |
| 20260506174005 | 67 | 204 | 4.0 | 20.0 | 0.00 | 0.00 | 0.00 | 82 | 1008.8 |
| 20260506173505 | 67 | 187 | 7.0 | 18.0 | 0.00 | 0.00 | 0.00 | 83 | 1008.8 |
| 20260506173005 | 66 | 209 | 5.0 | 20.0 | 0.00 | 0.00 | 0.00 | 83 | 1008.8 |
| 20260506172504 | 66 | 228 | 9.0 | 14.0 | 0.00 | 0.00 | 0.00 | 83 | 1009.0 |
| 20260506171505 | 66 | 209 | 7.0 | 14.0 | 0.00 | 0.00 | 0.00 | 84 | 1009.2 |
| 20260506171005 | 66 | 239 | 7.0 | 14.0 | 0.00 | 0.00 | 0.00 | 83 | 1009.2 |
| 20260506170505 | 67 | 194 | 6.0 | 12.0 | 0.00 | 0.00 | 0.00 | 82 | 1009.2 |
| 20260506170005 | 67 | 237 | 5.0 | 21.0 | 0.00 | 0.00 | 0.00 | 81 | 1009.4 |
| 20260506165505 | 68 | 204 | 6.0 | 14.0 | 0.00 | 0.00 | 0.00 | 79 | 1009.5 |
| 20260506165005 | 68 | 225 | 4.0 | 23.0 | 0.00 | 0.00 | 0.00 | 76 | 1009.5 |
| 20260506164504 | 70 | 215 | 13.0 | 23.0 | 0.00 | 0.00 | 0.00 | 74 | 1009.3 |
| 20260506164004 | 72 | 197 | 9.0 | 14.0 | 0.00 | 0.00 | 0.00 | 71 | 1009.4 |
| 20260506163505 | 73 | 221 | 10.0 | 20.0 | 0.00 | 0.00 | 0.00 | 70 | 1009.4 |
| 20260506163005 | 73 | 204 | 7.0 | 17.0 | 0.00 | 0.00 | 0.00 | 69 | 1009.5 |
| 20260506162505 | 73 | 217 | 10.0 | 20.0 | 0.00 | 0.00 | 0.00 | 69 | 1010.0 |
| 20260506162004 | 73 | 214 | 10.0 | 17.0 | 0.00 | 0.00 | 0.00 | 68 | 1010.2 |
| 20260506161005 | 74 | 216 | 5.0 | 15.0 | 0.00 | 0.00 | 0.00 | 65 | 1010.1 |
| 20260506160505 | 75 | 208 | 9.0 | 17.0 | 0.00 | 0.00 | 0.00 | 63 | 1010.3 |
| 20260506160005 | 76 | 236 | 9.0 | 15.0 | 0.00 | 0.00 | 0.00 | 64 | 1010.4 |
| 20260506155004 | 74 | 194 | 6.0 | 13.0 | 0.00 | 0.00 | 0.00 | 67 | 1010.3 |
| 20260506154005 | 73 | 199 | 8.0 | 15.0 | 0.00 | 0.00 | 0.00 | 66 | 1010.2 |
| 20260506153505 | 73 | 208 | 5.0 | 14.0 | 0.00 | 0.00 | 0.00 | 66 | 1010.1 |
| 20260506153005 | 73 | 208 | 9.0 | 15.0 | 0.00 | 0.00 | 0.00 | 64 | 1010.2 |
| 20260506152505 | 74 | 215 | 9.0 | 13.0 | 0.00 | 0.00 | 0.00 | 63 | 1010.4 |
| 20260506152005 | 74 | 210 | 4.0 | 12.0 | 0.00 | 0.00 | 0.00 | 63 | 1010.2 |
| 20260506151505 | 75 | 215 | 10.0 | 17.0 | 0.00 | 0.00 | 0.00 | 62 | 1010.5 |
| 20260506151005 | 75 | 234 | 7.0 | 16.0 | 0.00 | 0.00 | 0.00 | 62 | 1010.4 |
| 20260506150005 | 75 | 200 | 10.0 | 18.0 | 0.00 | 0.00 | 0.00 | 63 | 1010.2 |
| 20260506145505 | 74 | 232 | 9.0 | 17.0 | 0.00 | 0.00 | 0.00 | 64 | 1010.2 |
| 20260506145005 | 73 | 227 | 9.0 | 18.0 | 0.00 | 0.00 | 0.00 | 65 | 1010.2 |
| 20260506144505 | 73 | 213 | 6.0 | 13.0 | 0.00 | 0.00 | 0.00 | 65 | 1010.4 |
| 20260506144004 | 73 | 227 | 10.0 | 17.0 | 0.00 | 0.00 | 0.00 | 66 | 1010.3 |
| 20260506143005 | 72 | 188 | 6.0 | 13.0 | 0.00 | 0.00 | 0.00 | 65 | 1010.5 |
| 20260506142504 | 72 | 225 | 7.0 | 20.0 | 0.00 | 0.00 | 0.00 | 65 | 1010.4 |
| 20260506142004 | 73 | 187 | 7.0 | 20.0 | 0.00 | 0.00 | 0.00 | 64 | 1010.5 |
| 20260506141504 | 73 | 204 | 8.0 | 15.0 | 0.00 | 0.00 | 0.00 | 64 | 1010.5 |
| 20260506141004 | 73 | 218 | 9.0 | 17.0 | 0.00 | 0.00 | 0.00 | 63 | 1010.6 |
| 20260506140504 | 74 | 221 | 9.0 | 24.0 | 0.00 | 0.00 | 0.00 | 62 | 1010.7 |
| 20260506140005 | 75 | 222 | 3.0 | 20.0 | 0.00 | 0.00 | 0.00 | 62 | 1010.4 |
| 20260506135505 | 74 | 233 | 6.0 | 16.0 | 0.00 | 0.00 | 0.00 | 64 | 1010.3 |
| 20260506135004 | 73 | 229 | 8.0 | 18.0 | 0.00 | 0.00 | 0.00 | 64 | 1010.2 |
| 20260506134505 | 73 | 224 | 9.0 | 23.0 | 0.00 | 0.00 | 0.00 | 64 | 1010.4 |
| 20260506134005 | 73 | 214 | 7.0 | 16.0 | 0.00 | 0.00 | 0.00 | 65 | 1010.4 |
| 20260506133506 | 71 | 222 | 5.0 | 14.0 | 0.00 | 0.00 | 0.00 | 67 | 1010.5 |
| 20260506133006 | 71 | 215 | 7.0 | 14.0 | 0.00 | 0.00 | 0.00 | 66 | 1010.5 |
| 20260506132504 | 71 | 192 | 5.0 | 15.0 | 0.00 | 0.00 | 0.00 | 65 | 1010.5 |
| 20260506132005 | 72 | 193 | 14.0 | 20.0 | 0.00 | 0.00 | 0.00 | 64 | 1010.6 |
| 20260506131504 | 73 | 223 | 9.0 | 20.0 | 0.00 | 0.00 | 0.00 | 64 | 1010.7 |
| 20260506130005 | 74 | 240 | 8.0 | 18.0 | 0.00 | 0.00 | 0.00 | 61 | 1010.8 |
| 20260506125505 | 75 | 212 | 10.0 | 15.0 | 0.00 | 0.00 | 0.00 | 60 | 1010.9 |
| 20260506125005 | 77 | 207 | 10.0 | 18.0 | 0.00 | 0.00 | 0.00 | 59 | 1010.8 |
| 20260506124005 | 77 | 210 | 9.0 | 20.0 | 0.00 | 0.00 | 0.00 | 60 | 1010.7 |
| 20260506123004 | 77 | 207 | 9.0 | 21.0 | 0.00 | 0.00 | 0.00 | 61 | 1010.8 |
| 20260506122505 | 74 | 200 | 10.0 | 18.0 | 0.00 | 0.00 | 0.00 | 65 | 1010.8 |
| 20260506122004 | 72 | 183 | 5.0 | 10.0 | 0.00 | 0.00 | 0.00 | 66 | 1010.8 |
| 20260506121505 | 73 | 229 | 9.0 | 20.0 | 0.00 | 0.00 | 0.00 | 64 | 1010.7 |
| 20260506121005 | 74 | 214 | 7.0 | 21.0 | 0.00 | 0.00 | 0.00 | 63 | 1010.8 |
| 20260506120505 | 74 | 197 | 9.0 | 17.0 | 0.00 | 0.00 | 0.00 | 64 | 1010.8 |
| 20260506120005 | 73 | 193 | 4.0 | 21.0 | 0.00 | 0.00 | 0.00 | 66 | 1010.7 |
| 20260506115509 | 72 | 195 | 7.0 | 21.0 | 0.00 | 0.00 | 0.00 | 64 | 1010.7 |
| 20260506115005 | 75 | 204 | 13.0 | 22.0 | 0.00 | 0.00 | 0.00 | 63 | 1010.7 |
| 20260506114005 | 72 | 222 | 11.0 | 20.0 | 0.00 | 0.00 | 0.00 | 66 | 1010.7 |
| 20260506113505 | 74 | 211 | 7.0 | 15.0 | 0.00 | 0.00 | 0.00 | 64 | 1010.7 |
| 20260506113005 | 75 | 193 | 8.0 | 16.0 | 0.00 | 0.00 | 0.00 | 64 | 1010.6 |
| 20260506112005 | 73 | 212 | 8.0 | 17.0 | 0.00 | 0.00 | 0.00 | 70 | 1010.7 |
| 20260506111005 | 67 | 221 | 6.0 | 14.0 | 0.00 | 0.00 | 0.00 | 81 | 1010.6 |
| 20260506110505 | 63 | 213 | 8.0 | 17.0 | 0.00 | 0.00 | 0.00 | 83 | 1010.7 |
| 20260506110004 | 62 | 210 | 9.0 | 18.0 | 0.00 | 0.00 | 0.00 | 83 | 1010.8 |
| 20260506105504 | 62 | 232 | 7.0 | 14.0 | 0.00 | 0.00 | 0.00 | 84 | 1010.7 |
| 20260506105005 | 62 | 194 | 7.0 | 21.0 | 0.00 | 0.00 | 0.00 | 84 | 1010.6 |
| 20260506104504 | 62 | 224 | 9.0 | 17.0 | 0.00 | 0.00 | 0.00 | 84 | 1010.6 |
| 20260506104005 | 62 | 214 | 5.0 | 17.0 | 0.00 | 0.00 | 0.00 | 85 | 1010.8 |
| 20260506103504 | 62 | 205 | 10.0 | 15.0 | 0.00 | 0.00 | 0.00 | 85 | 1010.7 |
| 20260506102504 | 61 | 182 | 3.0 | 12.0 | 0.00 | 0.00 | 0.00 | 86 | 1010.8 |
| 20260506102005 | 61 | 205 | 6.0 | 14.0 | 0.00 | 0.00 | 0.00 | 86 | 1010.6 |
| 20260506101504 | 61 | 183 | 4.0 | 9.0 | 0.00 | 0.00 | 0.00 | 86 | 1010.7 |
| 20260506101005 | 61 | 203 | 6.0 | 13.0 | 0.00 | 0.00 | 0.00 | 86 | 1010.7 |
| 20260506100504 | 61 | 180 | 4.0 | 12.0 | 0.00 | 0.00 | 0.00 | 86 | 1010.7 |
| 20260506100005 | 61 | 221 | 4.0 | 10.0 | 0.00 | 0.00 | 0.00 | 86 | 1010.7 |
| 20260506095505 | 61 | 176 | 3.0 | 10.0 | 0.00 | 0.00 | 0.00 | 85 | 1010.6 |
| 20260506095004 | 61 | 181 | 5.0 | 8.0 | 0.00 | 0.00 | 0.00 | 85 | 1010.7 |
| 20260506094504 | 62 | 203 | 5.0 | 13.0 | 0.00 | 0.00 | 0.00 | 85 | 1010.6 |
| 20260506094005 | 62 | 228 | 8.0 | 17.0 | 0.00 | 0.00 | 0.00 | 85 | 1010.5 |
| 20260506093505 | 62 | 206 | 10.0 | 15.0 | 0.00 | 0.00 | 0.00 | 85 | 1010.5 |
| 20260506093005 | 62 | 214 | 7.0 | 16.0 | 0.00 | 0.00 | 0.00 | 86 | 1010.5 |
| 20260506092504 | 62 | 210 | 7.0 | 14.0 | 0.00 | 0.00 | 0.00 | 86 | 1010.5 |
| 20260506092005 | 62 | 213 | 5.0 | 14.0 | 0.00 | 0.00 | 0.00 | 86 | 1010.5 |
| 20260506091504 | 62 | 210 | 6.0 | 16.0 | 0.00 | 0.00 | 0.00 | 86 | 1010.5 |
| 20260506091004 | 62 | 221 | 9.0 | 15.0 | 0.00 | 0.00 | 0.00 | 86 | 1010.6 |
| 20260506090505 | 62 | 218 | 7.0 | 10.0 | 0.00 | 0.00 | 0.00 | 86 | 1010.6 |
| 20260506090005 | 62 | 222 | 6.0 | 12.0 | 0.00 | 0.00 | 0.00 | 86 | 1010.8 |
| 20260506085505 | 62 | 195 | 3.0 | 10.0 | 0.00 | 0.00 | 0.00 | 86 | 1010.8 |
| 20260506085005 | 62 | 205 | 6.0 | 12.0 | 0.00 | 0.00 | 0.00 | 86 | 1010.8 |
| 20260506084504 | 62 | 202 | 6.0 | 12.0 | 0.00 | 0.00 | 0.00 | 86 | 1010.7 |
| 20260506084004 | 62 | 190 | 9.0 | 13.0 | 0.00 | 0.00 | 0.00 | 86 | 1011.0 |
| 20260506083504 | 62 | 206 | 10.0 | 20.0 | 0.00 | 0.00 | 0.00 | 86 | 1010.9 |
| 20260506082504 | 62 | 209 | 6.0 | 14.0 | 0.00 | 0.00 | 0.00 | 87 | 1011.1 |
| 20260506082004 | 62 | 211 | 2.0 | 10.0 | 0.00 | 0.00 | 0.00 | 87 | 1011.1 |
| 20260506081504 | 62 | 212 | 6.0 | 15.0 | 0.00 | 0.00 | 0.00 | 87 | 1011.1 |
| 20260506081005 | 62 | 202 | 3.0 | 9.0 | 0.00 | 0.00 | 0.00 | 87 | 1011.1 |
| 20260506073504 | 62 | 205 | 6.0 | 13.0 | 0.00 | 0.00 | 0.00 | 87 | 1010.9 |
| 20260506073005 | 62 | 198 | 6.0 | 10.0 | 0.00 | 0.00 | 0.00 | 86 | 1010.9 |
| 20260506072505 | 62 | 200 | 2.0 | 10.0 | 0.00 | 0.00 | 0.00 | 86 | 1011.0 |
| 20260506072004 | 62 | 213 | 3.0 | 12.0 | 0.00 | 0.00 | 0.00 | 86 | 1011.0 |
| 20260506071504 | 62 | 194 | 5.0 | 13.0 | 0.00 | 0.00 | 0.00 | 86 | 1011.0 |
| 20260506071004 | 62 | 202 | 7.0 | 12.0 | 0.00 | 0.00 | 0.00 | 86 | 1011.1 |
| 20260506070505 | 62 | 224 | 7.0 | 13.0 | 0.00 | 0.00 | 0.00 | 86 | 1011.1 |
| 20260506062004 | 63 | 203 | 6.0 | 16.0 | 0.00 | 0.00 | 0.00 | 85 | 1011.1 |
| 20260506061504 | 63 | 210 | 5.0 | 10.0 | 0.00 | 0.00 | 0.00 | 84 | 1011.0 |
| 20260506061004 | 63 | 214 | 9.0 | 21.0 | 0.00 | 0.00 | 0.00 | 84 | 1011.0 |
| 20260506060504 | 63 | 199 | 4.0 | 13.0 | 0.00 | 0.00 | 0.00 | 84 | 1011.1 |
| 20260506051004 | 65 | 222 | 5.0 | 14.0 | 0.00 | 0.00 | 0.00 | 82 | 1011.5 |
| 20260506044504 | 65 | 186 | 13.0 | 23.0 | 0.00 | 0.00 | 0.00 | 82 | 1011.7 |
| 20260506044004 | 65 | 228 | 6.0 | 15.0 | 0.00 | 0.00 | 0.00 | 82 | 1011.7 |
| 20260506043004 | 65 | 195 | 6.0 | 20.0 | 0.00 | 0.00 | 0.00 | 82 | 1011.7 |
| 20260506042504 | 65 | 182 | 6.0 | 18.0 | 0.00 | 0.00 | 0.00 | 81 | 1011.7 |
| 20260506042004 | 65 | 223 | 6.0 | 16.0 | 0.00 | 0.00 | 0.00 | 81 | 1011.7 |
| 20260506041504 | 65 | 202 | 10.0 | 21.0 | 0.00 | 0.00 | 0.00 | 81 | 1011.6 |
| 20260506041005 | 65 | 210 | 6.0 | 14.0 | 0.00 | 0.00 | 0.00 | 81 | 1011.6 |
| 20260506040504 | 65 | 210 | 6.0 | 13.0 | 0.00 | 0.00 | 0.00 | 81 | 1011.7 |
| 20260506035504 | 65 | 208 | 5.0 | 17.0 | 0.00 | 0.00 | 0.00 | 81 | 1011.6 |
| 20260506035005 | 65 | 210 | 6.0 | 14.0 | 0.00 | 0.00 | 0.00 | 80 | 1011.6 |
| 20260506034004 | 65 | 176 | 6.0 | 18.0 | 0.00 | 0.00 | 0.00 | 80 | 1011.6 |